Home > Weather > Ankara > Past weeks

Flag for Turkey Weather for the Past 2 Weeks in Ankara, Turkey

Now
45 °F

Partly cloudy.


Feels Like: 45 °F
Forecast: 45 / 63 °F
Wind: 1 mph from North

Location: Ankara / Esenboga

Current Time: May 5, 2016 at 1:50:26 AM

Latest Report: May 5, 2016 at 1:20 AM


Visibility: N/A

Pressure: 29.77 "Hg (26.77 "Hg at 871m altitude)

Humidity: 87%

Dew Point: 41 °F

Location of AnkaraLocation

Historic Weather in Ankara — Graph

°F

Ankara Temperature Yesterday

Maximum temperature yesterday: 59 °F (at 3:50 PM)
Minimum temperature yesterday: 43 °F (at 6:20 AM)
Average temperature yesterday: 51 °F

High & Low Weather Summary for the Past Weeks

 TemperatureHumidityPressure
High81 °F (Apr 20, 1:20 PM)93% (Apr 26, 4:20 AM)30.30 "Hg (Apr 26, 4:20 AM)
Low27 °F (Apr 22, 6:20 AM)14% (Apr 23, 5:50 PM)29.56 "Hg (Apr 24, 4:50 PM)
Average55 °F53%29.92 "Hg
* Reported Apr 19 8:20 PM — May 4 8:50 PM, Ankara, Weather by CustomWeather, © 2016

Note: Actual official high and low records may vary slightly from our data, if they occured in-between our weather recording intervals... More about our weather records

Advertising

Ankara Weather History for the Previous 24 Hours

Scroll right to see more
 ConditionsComfort  
Time TempWeatherWind HumidityBarometerVisibility
8:50 PM
Wed, May 4
48 °FSprinkles. Passing clouds.5 mph71%29.77 "HgN/A
8:20 PM48 °FSprinkles. Partly sunny.13 mph76%29.77 "HgN/A
7:50 PM52 °FPartly sunny.20 mph62%29.74 "HgN/A
7:20 PM55 °FPartly sunny.3 mph59%29.71 "HgN/A
6:50 PM55 °FPartly sunny.3 mph55%29.71 "HgN/A
6:20 PM57 °FPartly sunny.6 mph48%29.71 "HgN/A
5:20 PM59 °FPartly sunny.7 mph45%29.71 "HgN/A
4:50 PM59 °FPartly sunny.10 mph45%29.71 "HgN/A
4:20 PM59 °FPartly sunny.13 mph51%29.71 "HgN/A
3:50 PM59 °FPartly sunny.10 mph45%29.71 "HgN/A
3:20 PM55 °FPartly sunny.10 mph59%29.71 "HgN/A
1:50 PM52 °FPartly sunny.16 mph62%29.71 "HgN/A
1:20 PM52 °FPartly sunny.17 mph72%29.71 "HgN/A
12:50 PM52 °FPartly sunny.14 mph72%29.71 "HgN/A
12:20 PM54 °FSprinkles. Partly sunny.14 mph63%29.71 "Hg5 mi
11:50 AM57 °FPartly sunny.9 mph51%29.68 "HgN/A
10:50 AM55 °FScattered clouds.7 mph51%29.71 "HgN/A
10:20 AM55 °FScattered clouds.7 mph51%29.68 "HgN/A
9:50 AM55 °FScattered clouds.6 mph51%29.71 "HgN/A
9:20 AM54 °FScattered clouds.9 mph58%29.68 "HgN/A
8:50 AM52 °FScattered clouds.2 mph62%29.68 "HgN/A
7:50 AM50 °FScattered clouds.1 mph71%29.68 "HgN/A
7:20 AM48 °FScattered clouds.No wind76%29.68 "HgN/A
6:50 AM45 °FScattered clouds.2 mph87%29.68 "HgN/A
6:20 AM43 °FPassing clouds.6 mph87%29.68 "HgN/A
5:50 AM45 °FPassing clouds.6 mph81%29.68 "HgN/A
5:20 AM46 °FPassing clouds.3 mph82%29.68 "HgN/A
4:50 AM46 °FPassing clouds.6 mph76%29.68 "HgN/A
4:20 AM46 °FPassing clouds.1 mph82%29.68 "HgN/A
3:50 AM48 °FPassing clouds.6 mph76%29.68 "HgN/A
3:20 AM48 °FPassing clouds.3 mph71%29.68 "HgN/A
2:50 AM48 °FPassing clouds.1 mph76%29.68 "HgN/A
2:20 AM48 °FPassing clouds.6 mph82%29.68 "HgN/A
1:50 AM48 °FPassing clouds.9 mph76%29.68 "HgN/A
1:20 AM48 °FPassing clouds.9 mph76%29.71 "HgN/A
Weather by CustomWeather, © 2016

See weather overviewHow to use our weather pages